Wind_Speed
15 15 16 17 17 17 18 18 19 18 18 18 19 21 22 23 25 25 25 26 27 28 28 27 28 28 28 28 29 30 29 29 29 29 28 28 28 27 27 27 27 27 27
15 15 16 16 17 17 16 16 17 17 17 18 19 21 22 23 24 25 26 26 26 26 26 27 28 28 28 29 29 29 30 29 29 30 30 29 28 28 28 28 28 28 28
16 16 16 16 16 16 16 15 16 16 17 17 19 21 22 22 23 25 25 26 27 27 27 28 28 29 29 29 30 29 30 30 30 30 30 29 29 29 29 29 29 29 29
17 17 17 17 17 16 16 16 16 16 17 17 17 19 20 21 22 23 24 25 26 26 27 28 29 29 29 29 29 30 30 30 31 31 32 32 31 31 30 29 29 30 31
18 18 18 18 18 18 18 18 17 17 18 17 17 19 20 21 21 22 24 24 25 26 27 28 29 29 30 30 30 30 30 30 30 32 32 32 32 31 31 30 30 30 31
16 17 18 18 19 19 19 19 18 19 19 18 18 19 21 22 22 23 24 25 26 27 28 29 30 30 30 30 30 30 30 30 30 30 31 31 31 31 32 31 31 31 31
17 18 18 19 19 19 19 19 19 20 20 20 20 20 21 22 23 24 25 25 26 27 28 28 28 29 30 30 31 31 31 31 31 31 31 31 31 31 32 32 32 32 32
18 19 19 19 19 20 20 21 21 21 21 21 21 22 22 23 24 25 26 26 26 26 27 27 28 29 29 30 30 31 31 31 32 32 32 32 32 31 31 32 32 32 31
19 20 20 20 20 21 22 22 22 22 23 23 23 23 23 24 25 26 26 26 26 27 27 28 28 28 29 29 30 30 30 31 31 31 31 31 31 31 31 31 31 31 32
21 20 21 22 22 23 24 24 24 24 25 25 25 25 26 26 27 27 28 28 28 28 29 29 30 30 30 30 30 30 30 30 30 30 30 31 31 31 31 31 31 32 31
21 22 23 23 23 24 25 25 26 27 26 26 26 27 28 28 28 28 29 29 29 29 30 30 31 31 31 31 31 31 31 31 30 30 30 30 31 31 31 31 30 30 31
22 23 24 24 25 26 26 26 26 26 26 26 27 28 28 28 28 28 29 29 29 30 30 31 31 31 31 31 32 32 32 32 31 31 30 30 30 30 29 28 28 28 28
21 23 23 24 24 25 25 25 25 26 27 27 27 27 27 28 28 28 29 29 29 29 30 30 30 29 30 30 31 31 31 31 31 31 30 30 29 28 27 27 26 26 27
21 22 23 25 25 25 25 25 26 26 27 27 27 27 28 28 28 28 28 28 29 29 29 29 29 29 30 30 30 30 30 30 30 30 30 29 29 28 27 27 26 26 26
22 22 23 24 24 25 25 25 26 26 26 26 26 27 27 28 27 27 27 28 28 28 28 29 29 29 29 28 29 29 29 29 29 28 28 27 27 26 26 26 25 24 24
22 23 23 24 24 24 24 24 24 25 25 26 27 27 27 27 27 26 26 26 26 27 27 27 28 28 28 28 28 27 27 27 27 26 25 24 24 23 23 23 22 21 21
21 22 22 23 23 23 23 24 24 25 25 25 26 26 25 25 25 24 25 25 25 26 26 25 26 26 26 26 26 25 25 24 23 22 22 21 21 21 21 21 20 19 19
20 21 21 21 22 22 22 22 23 24 24 25 25 24 24 23 23 23 23 22 23 23 23 23 22 23 22 22 22 23 22 20 20 20 19 19 18 19 18 18 17 16 15
19 20 20 20 20 21 21 21 21 22 22 23 22 22 22 22 22 22 22 21 21 21 21 21 20 20 20 19 18 18 17 18 17 17 17 16 15 15 15 15 14 14 14
18 18 19 18 18 18 17 17 18 19 20 20 20 20 20 20 20 20 19 18 18 18 18 18 18 18 17 16 16 15 15 16 16 16 15 15 14 13 13 13 12 12 12
17 16 16 16 16 16 16 16 16 16 16 17 17 17 17 17 17 16 15 14 14 14 14 14 14 14 14 13 13 13 13 13 13 13 13 13 12 12 11 11 10 9 10
15 15 14 13 13 13 13 14 14 14 14 14 13 12 13 13 12 12 11 11 10 11 11 11 11 10 10 10 10 10 10 10 10 10 10 10 10 10 10 9 9 9 8
13 13 11 11 11 10 10 11 11 11 11 10 10 10 10 9 9 8 8 7 7 7 7 7 7 7 8 7 7 7 7 8 8 8 9 9 9 9 9 8 8 8 8
12 11 9 9 8 9 9 9 8 8 7 7 7 7 7 6 6 6 5 5 4 4 4 4 4 4 4 4 4 4 5 6 7 7 9 9 8 8 8 8 7 8 8
12 10 9 8 8 8 7 7 7 6 6 6 6 5 4 4 4 3 3 2 2 2 2 2 1 1 2 3 3 4 4 5 6 7 9 9 9 9 9 9 9 9 9
12 10 9 8 8 7 6 6 6 6 5 5 4 4 4 4 3 2 2 2 2 1 1 1 1 2 3 4 5 5 6 7 8 9 9 10 10 11 11 11 11 11 11
Wind_Direction
268 269 269 266 265 265 265 261 259 258 257 253 251 249 248 249 249 249 249 251 252 253 254 255 257 258 259 261 262 261 262 263 263 264 265 265 265 266 267 268 268 265 263
267 269 270 271 268 268 266 261 259 258 259 257 255 252 251 252 253 253 253 253 255 256 257 260 260 260 261 262 263 263 263 263 264 265 265 265 265 266 267 268 267 265 263
269 270 271 272 270 267 266 265 263 261 264 263 259 254 252 253 255 256 256 256 257 259 261 262 263 263 264 265 266 265 265 264 265 265 266 266 266 266 266 267 267 266 264
268 270 270 271 271 272 271 268 267 267 268 267 264 258 257 259 260 258 259 259 260 261 263 264 265 265 266 267 267 266 267 267 265 265 265 264 264 266 266 266 266 266 265
270 271 270 271 272 271 271 271 270 269 270 269 267 264 264 263 262 263 263 264 264 264 264 264 265 267 267 268 268 268 267 268 267 265 265 264 265 266 266 266 266 267 266
271 272 271 271 272 270 270 269 269 270 270 269 269 267 267 266 266 266 266 266 266 265 265 265 266 266 267 268 269 268 267 266 266 266 265 265 266 268 266 265 265 266 267
270 269 272 273 272 270 271 269 269 268 269 270 270 270 269 268 268 269 268 267 267 267 268 267 266 267 267 268 269 268 267 266 265 265 266 267 268 268 267 265 265 265 265
273 272 272 273 271 270 271 271 270 268 268 270 271 272 271 271 270 270 269 269 268 267 268 268 269 269 268 268 268 268 266 265 264 264 266 268 268 268 268 267 265 264 263
276 274 271 271 271 272 272 272 270 268 269 269 271 272 273 273 272 271 271 271 271 270 269 270 270 269 269 269 268 268 267 265 264 264 265 267 268 269 270 268 265 264 263
276 276 273 275 274 274 272 273 272 270 269 269 270 271 272 272 272 272 271 272 272 273 272 271 270 270 270 269 269 268 267 265 265 265 266 267 268 268 269 268 265 263 262
274 275 275 276 276 276 273 272 272 271 270 270 271 272 272 272 271 272 272 272 272 273 273 273 272 271 270 269 269 268 267 266 265 265 265 266 267 268 269 268 265 262 260
275 275 276 276 276 276 275 273 272 271 271 270 271 272 273 274 273 273 273 273 273 273 272 272 272 270 269 269 269 269 268 266 265 265 265 266 266 266 266 266 264 263 261
277 275 275 276 276 274 273 272 272 271 271 271 270 271 273 275 275 275 275 274 273 273 272 272 271 271 270 269 269 269 268 266 265 265 265 265 263 264 263 263 263 262 261
282 280 279 278 278 275 274 275 274 274 274 274 273 274 275 276 277 276 276 275 274 275 274 272 270 270 270 270 270 270 270 267 266 265 265 264 262 262 262 262 261 261 261
283 284 283 281 279 277 276 276 274 275 274 275 277 278 278 278 278 277 277 276 275 275 274 273 271 270 270 270 270 270 270 269 267 265 264 263 262 261 261 260 260 261 261
283 283 281 280 279 277 275 276 277 278 279 280 281 280 279 279 279 278 278 278 277 276 276 274 273 272 270 270 270 270 269 268 266 265 262 261 260 259 258 258 259 259 258
284 282 281 280 279 278 277 277 278 280 281 282 281 280 280 279 277 277 277 277 276 276 276 276 274 272 271 271 270 270 270 268 264 261 259 258 257 256 255 253 253 256 256
288 285 282 281 279 279 279 279 279 279 280 281 281 280 281 280 279 278 277 278 278 277 276 276 274 273 271 270 270 269 266 264 263 261 259 257 255 253 251 249 249 252 253
292 289 285 282 282 282 281 281 282 282 282 282 282 283 283 283 282 280 279 279 279 278 276 274 272 271 272 273 270 265 262 260 259 259 258 255 254 251 248 247 248 249 248
296 294 290 288 286 287 288 285 285 285 283 283 284 285 285 285 284 283 281 279 279 277 275 274 272 272 272 269 266 260 257 255 254 253 250 248 247 246 244 244 244 243 244
301 299 296 293 291 292 293 289 285 287 288 290 289 286 286 286 284 283 282 280 278 276 275 274 273 272 271 269 265 258 253 249 250 247 243 238 236 234 233 234 236 233 232
310 308 305 300 297 296 295 293 294 295 295 295 293 290 289 288 285 284 282 282 279 275 272 273 273 270 267 268 263 250 245 239 240 234 230 227 223 220 218 216 215 214 215
319 315 310 307 305 302 303 300 300 301 301 301 298 294 293 292 292 287 282 282 280 277 268 267 268 266 264 264 250 239 235 229 229 220 214 207 202 199 197 200 204 200 201
336 330 325 320 316 314 315 315 318 316 315 315 310 308 307 305 303 299 291 287 285 279 271 269 272 265 257 239 221 214 208 212 207 197 185 179 176 175 177 181 183 177 175
348 344 337 332 331 333 333 332 331 329 332 334 331 330 333 334 329 333 331 319 301 293 277 284 291 233 199 189 179 169 169 173 170 165 164 166 168 170 169 166 163 158 155
2 359 355 352 351 349 349 349 353 354 351 350 351 357 4 360 3 19 39 60 79 64 59 71 109 135 137 139 135 141 147 149 149 152 153 154 155 154 153 151 149 146 145
Height
5851 5850 5850 5850 5849 5848 5847 5846 5845 5845 5845 5845 5845 5845 5845 5846 5847 5848 5849 5849 5851 5852 5853 5853 5854 5855 5856 5857 5857 5858 5858 5859 5860 5860 5860 5861 5861 5861 5861 5861 5861 5862 5862
5847 5847 5846 5846 5845 5844 5843 5842 5841 5841 5841 5840 5840 5841 5841 5842 5843 5843 5844 5845 5846 5846 5847 5847 5848 5848 5849 5850 5850 5851 5852 5853 5853 5854 5854 5855 5855 5855 5855 5855 5855 5855 5855
5844 5843 5843 5842 5841 5840 5839 5839 5838 5838 5838 5837 5836 5836 5837 5837 5838 5838 5839 5840 5840 5840 5841 5841 5841 5842 5843 5844 5844 5844 5845 5846 5846 5846 5847 5848 5848 5848 5849 5848 5848 5848 5849
5840 5839 5839 5838 5837 5836 5836 5835 5835 5834 5834 5833 5832 5832 5832 5832 5833 5833 5834 5834 5834 5835 5835 5835 5835 5836 5836 5837 5837 5838 5838 5839 5839 5840 5840 5840 5841 5841 5842 5842 5842 5842 5842
5836 5835 5835 5834 5833 5832 5832 5831 5831 5830 5830 5829 5828 5827 5827 5828 5828 5828 5829 5829 5829 5829 5829 5829 5829 5830 5830 5830 5830 5830 5831 5831 5832 5832 5832 5833 5834 5834 5835 5835 5835 5835 5835
5832 5831 5830 5829 5829 5828 5827 5827 5826 5826 5826 5825 5824 5824 5823 5823 5823 5823 5823 5823 5823 5823 5822 5822 5823 5823 5823 5823 5823 5823 5823 5824 5825 5825 5826 5826 5827 5827 5827 5827 5828 5828 5828
5827 5826 5826 5825 5824 5823 5823 5822 5821 5821 5821 5820 5820 5819 5818 5818 5817 5817 5817 5817 5816 5816 5816 5815 5815 5815 5815 5815 5816 5816 5816 5817 5818 5818 5819 5819 5820 5820 5820 5820 5820 5820 5821
5823 5822 5821 5820 5819 5819 5818 5817 5816 5816 5815 5815 5814 5813 5813 5812 5812 5811 5811 5810 5810 5810 5809 5808 5808 5808 5808 5808 5808 5808 5809 5809 5810 5811 5811 5812 5812 5812 5812 5812 5812 5812 5813
5819 5817 5816 5815 5814 5813 5812 5811 5811 5810 5809 5808 5808 5807 5807 5806 5805 5805 5804 5804 5803 5803 5802 5801 5801 5801 5800 5800 5800 5800 5801 5801 5802 5803 5803 5804 5804 5804 5804 5804 5804 5805 5805
5814 5812 5811 5810 5809 5808 5806 5805 5804 5803 5803 5802 5801 5801 5800 5799 5798 5798 5797 5796 5796 5795 5794 5794 5794 5793 5793 5793 5793 5793 5793 5793 5794 5795 5795 5796 5796 5796 5796 5796 5796 5796 5797
5808 5807 5806 5804 5802 5801 5800 5799 5797 5796 5795 5794 5794 5793 5792 5791 5790 5790 5789 5788 5787 5787 5786 5786 5785 5785 5785 5785 5785 5785 5785 5785 5786 5787 5787 5788 5788 5788 5788 5788 5788 5788 5789
5802 5801 5799 5798 5796 5794 5793 5792 5790 5789 5788 5787 5786 5785 5784 5783 5782 5781 5781 5780 5779 5778 5778 5777 5777 5777 5777 5776 5777 5777 5777 5777 5778 5779 5779 5780 5780 5780 5780 5780 5781 5781 5782
5796 5794 5793 5791 5789 5788 5786 5785 5783 5782 5781 5779 5778 5777 5776 5775 5774 5773 5773 5772 5771 5770 5769 5769 5768 5768 5768 5768 5768 5768 5769 5769 5770 5770 5771 5771 5772 5772 5773 5773 5774 5774 5775
5790 5788 5786 5784 5782 5780 5779 5778 5776 5775 5773 5772 5771 5770 5769 5768 5767 5765 5764 5764 5763 5762 5761 5760 5760 5760 5760 5760 5760 5760 5760 5761 5761 5762 5762 5763 5764 5765 5765 5766 5767 5767 5768
5785 5782 5780 5778 5775 5774 5772 5770 5769 5768 5766 5765 5763 5762 5761 5760 5759 5758 5757 5756 5755 5754 5753 5753 5752 5752 5752 5752 5752 5752 5752 5752 5753 5753 5754 5755 5756 5757 5758 5759 5760 5761 5761
5778 5776 5773 5771 5769 5767 5765 5763 5762 5761 5759 5758 5756 5755 5754 5753 5751 5750 5750 5749 5748 5747 5746 5745 5744 5744 5744 5744 5744 5745 5745 5745 5745 5745 5746 5747 5749 5750 5751 5752 5753 5755 5756
5771 5769 5767 5764 5762 5760 5758 5757 5755 5754 5752 5751 5749 5748 5747 5745 5745 5743 5743 5742 5741 5740 5739 5738 5737 5737 5737 5736 5737 5737 5737 5737 5738 5739 5740 5741 5742 5743 5745 5746 5748 5749 5750
5765 5763 5760 5758 5756 5754 5752 5750 5748 5747 5745 5744 5742 5741 5740 5739 5738 5737 5736 5735 5734 5733 5732 5731 5731 5730 5730 5730 5730 5730 5730 5731 5732 5733 5734 5735 5737 5738 5739 5741 5743 5744 5745
5760 5757 5754 5752 5750 5747 5745 5743 5742 5740 5739 5738 5736 5735 5733 5732 5731 5730 5729 5729 5728 5727 5726 5725 5725 5724 5724 5724 5724 5724 5725 5726 5727 5728 5729 5731 5732 5734 5735 5737 5738 5740 5741
5754 5751 5749 5747 5744 5742 5740 5738 5736 5735 5733 5732 5730 5729 5728 5726 5725 5724 5723 5723 5722 5721 5721 5720 5719 5719 5718 5718 5719 5719 5720 5721 5722 5723 5725 5727 5728 5730 5732 5733 5735 5736 5738
5749 5746 5744 5742 5739 5737 5735 5733 5731 5730 5728 5727 5725 5724 5723 5721 5720 5719 5718 5718 5717 5717 5716 5715 5715 5714 5714 5714 5714 5715 5716 5717 5718 5719 5721 5723 5725 5726 5728 5730 5732 5733 5735
5745 5742 5739 5737 5735 5733 5731 5729 5728 5726 5724 5723 5721 5720 5719 5717 5716 5715 5715 5714 5713 5713 5712 5712 5712 5711 5711 5711 5711 5711 5712 5713 5715 5716 5718 5720 5722 5724 5726 5728 5729 5731 5733
5741 5738 5736 5734 5731 5730 5728 5726 5725 5723 5721 5720 5718 5717 5715 5714 5713 5712 5711 5711 5710 5710 5710 5709 5709 5709 5708 5708 5708 5709 5710 5711 5713 5714 5716 5718 5720 5722 5724 5726 5728 5729 5731
5738 5735 5733 5731 5729 5727 5725 5724 5722 5720 5719 5717 5716 5715 5713 5712 5711 5710 5710 5709 5709 5708 5708 5708 5707 5707 5707 5707 5707 5708 5709 5710 5711 5713 5714 5717 5719 5721 5723 5725 5727 5729 5731
5736 5733 5731 5729 5727 5726 5724 5722 5720 5719 5717 5716 5714 5713 5712 5711 5710 5709 5709 5708 5708 5708 5708 5707 5707 5707 5707 5707 5707 5708 5709 5710 5711 5713 5714 5716 5719 5721 5723 5725 5727 5729 5731
5735 5732 5730 5728 5726 5724 5723 5721 5719 5718 5717 5715 5714 5713 5712 5711 5710 5709 5709 5709 5708 5708 5708 5708 5707 5707 5707 5707 5708 5709 5709 5711 5712 5714 5715 5717 5719 5721 5723 5725 5727 5730 5732